User: anonymous   Login
Location: Asheville, NC
(35.6000°N, 82.5500°W)
Time: 12:11:31
(UTC-04:00)
Language:

ITUPSAT 1 - Orbit

View from above orbital plane
View from above orbital plane
View from above satellite
View from above satellite

Ground track
Ground track

The orbit data is extracted from the following two-line orbital elements,

1 35935U 09051E   18169.89358640 +.00000092 +00000-0 +32316-4 0  9998
2 35935 098.5609 322.8967 0007635 205.3839 154.6984 14.55446677463540
Epoch (UTC): 18 June 2018 21:26:45
Eccentricity: 0.0007635
inclination: 98.5609°
perigee height: 702 km
apogee height: 713 km
right ascension of ascending node: 322.8967°
argument of perigee: 205.3839°
revolutions per day: 14.55446677
mean anomaly at epoch: 154.6984°
orbit number at epoch: 46354

The dashed part of the orbit path shows where the satellite is in the earth's shadow,  

DLR